Location: Ammerl�gen
(47.2167°N, 9.6000°E)
Time: 04:55:10
(UTC+00:00)

Cosmos 2292 Rocket - Pass Details

Date: 21 April 2021
Orbit: 380 x 1448 km, 83.0° (Epoch: 16 May)

Event Time Altitude Azimuth Distance (km) Brightness Sun altitude
Rises 19:47:05 0° 350° (N) 4,052 8.5 -14.0°
Reaches altitude 10° 19:50:04 10° 349° (N) 2,928 7.7 -14.4°
Maximum altitude 19:56:44 79° 265° (W) 888 4.4 -15.3°
Enters shadow 20:01:18 12° 179° (S) 2,044 5.8 -15.9°
